TimeEST,TemperatureF,Dew PointF,Humidity,Sea Level PressureIn,VisibilityMPH,Wind Direction,Wind SpeedMPH,Gust SpeedMPH,PrecipitationIn,Events,Conditions,WindDirDegrees,DateUTC
12:14 AM,57.2,53.6,88,30.26,10.0,South,6.9,-,N/A,,Overcast,190,2012-11-13 05:14:00
12:25 AM,57.2,53.6,88,30.25,10.0,South,8.1,-,N/A,,Mostly Cloudy,190,2012-11-13 05:25:00
12:53 AM,57.9,54.0,87,30.24,10.0,South,8.1,-,N/A,,Mostly Cloudy,180,2012-11-13 05:53:00
1:53 AM,57.9,54.0,87,30.22,10.0,South,6.9,-,N/A,,Overcast,170,2012-11-13 06:53:00
2:04 AM,57.2,53.6,88,30.21,10.0,South,6.9,-,N/A,,Overcast,180,2012-11-13 07:04:00
2:27 AM,57.2,53.6,88,30.20,10.0,South,8.1,-,0.01,,Overcast,170,2012-11-13 07:27:00
2:53 AM,57.0,55.0,93,30.19,10.0,SSE,8.1,-,0.04,,Overcast,160,2012-11-13 07:53:00
3:53 AM,57.9,55.9,93,30.16,10.0,Variable,4.6,-,N/A,,Overcast,0,2012-11-13 08:53:00
4:53 AM,60.1,57.0,90,30.14,10.0,South,8.1,19.6,N/A,,Overcast,190,2012-11-13 09:53:00
5:53 AM,60.1,55.9,86,30.13,10.0,South,11.5,18.4,N/A,,Overcast,190,2012-11-13 10:53:00
6:31 AM,60.8,55.4,82,30.13,10.0,SSW,10.4,19.6,N/A,,Overcast,200,2012-11-13 11:31:00
6:53 AM,60.1,55.9,86,30.13,10.0,SSW,11.5,21.9,N/A,,Overcast,200,2012-11-13 11:53:00
7:53 AM,61.0,57.0,87,30.12,10.0,SSW,11.5,19.6,N/A,,Overcast,210,2012-11-13 12:53:00
8:37 AM,59.0,55.4,88,30.13,10.0,SW,8.1,-,0.02,,Overcast,220,2012-11-13 13:37:00
8:53 AM,59.0,55.0,87,30.14,10.0,SW,5.8,-,0.02,,Overcast,220,2012-11-13 13:53:00
9:35 AM,57.2,55.4,94,30.15,3.0,WSW,5.8,-,0.02,Rain,Light Rain,240,2012-11-13 14:35:00
9:53 AM,55.0,52.0,89,30.15,10.0,Variable,3.5,-,0.02,Rain,Light Rain,0,2012-11-13 14:53:00
9:59 AM,55.4,51.8,88,30.15,10.0,Variable,3.5,-,N/A,,Overcast,0,2012-11-13 14:59:00
10:53 AM,54.0,51.1,90,30.18,10.0,Calm,Calm,-,N/A,,Overcast,0,2012-11-13 15:53:00
11:05 AM,53.6,51.8,94,30.19,10.0,Calm,Calm,-,N/A,,Overcast,0,2012-11-13 16:05:00
11:40 AM,53.6,51.8,94,30.18,5.0,Calm,Calm,-,0.01,Rain,Light Rain,0,2012-11-13 16:40:00
11:48 AM,53.6,51.8,94,30.19,8.0,Calm,Calm,-,0.01,Rain,Light Rain,0,2012-11-13 16:48:00
11:53 AM,54.0,51.1,90,30.18,6.0,Calm,Calm,-,0.02,Rain,Light Rain,0,2012-11-13 16:53:00
12:53 PM,53.1,50.0,89,30.17,5.0,Calm,Calm,-,0.02,Rain,Light Rain,0,2012-11-13 17:53:00
1:05 PM,53.6,50.0,88,30.16,5.0,ENE,4.6,-,0.01,Rain,Light Rain,60,2012-11-13 18:05:00
1:13 PM,53.6,50.0,88,30.17,5.0,Variable,3.5,-,0.01,Rain,Light Rain,0,2012-11-13 18:13:00
1:45 PM,51.8,50.0,94,30.17,8.0,Calm,Calm,-,0.03,Rain,Light Rain,0,2012-11-13 18:45:00
1:53 PM,52.0,50.0,93,30.18,5.0,Calm,Calm,-,0.05,Rain,Rain,0,2012-11-13 18:53:00
2:00 PM,51.8,50.0,94,30.19,5.0,Calm,Calm,-,0.00,Rain,Light Rain,0,2012-11-13 19:00:00
2:42 PM,46.4,42.8,87,30.23,5.0,Calm,Calm,-,0.05,Rain,Light Rain,0,2012-11-13 19:42:00
2:53 PM,45.0,42.1,90,30.24,7.0,Variable,4.6,-,0.05,Rain,Light Rain,0,2012-11-13 19:53:00
3:53 PM,44.1,39.9,85,30.26,10.0,Variable,3.5,-,0.03,,Overcast,0,2012-11-13 20:53:00
4:28 PM,42.8,37.4,81,30.27,10.0,Variable,4.6,-,N/A,,Overcast,0,2012-11-13 21:28:00
4:53 PM,43.0,37.9,82,30.28,10.0,Calm,Calm,-,N/A,,Overcast,0,2012-11-13 21:53:00
5:53 PM,42.1,35.1,76,30.32,10.0,Calm,Calm,-,N/A,,Overcast,0,2012-11-13 22:53:00
6:53 PM,42.1,32.0,67,30.35,10.0,Calm,Calm,-,N/A,,Overcast,0,2012-11-13 23:53:00
7:53 PM,41.0,28.9,62,30.38,10.0,Variable,3.5,-,N/A,,Overcast,0,2012-11-14 00:53:00
8:53 PM,41.0,28.9,62,30.41,10.0,Variable,3.5,-,N/A,,Overcast,0,2012-11-14 01:53:00
9:53 PM,39.9,28.0,63,30.41,10.0,Calm,Calm,-,N/A,,Overcast,0,2012-11-14 02:53:00
10:53 PM,39.9,27.0,60,30.43,10.0,Variable,3.5,-,N/A,,Overcast,0,2012-11-14 03:53:00
11:53 PM,35.1,28.0,76,30.45,10.0,Calm,Calm,-,N/A,,Clear,0,2012-11-14 04:53:00